Year,Month,Day,Hour,Minute,Value (Times are PST for windspeed in km/hr)
2014,08,21,00,00,14.30
2014,08,21,00,01,13.70
2014,08,21,00,02,15.60
2014,08,21,00,03,14.10
2014,08,21,00,04,16.30
2014,08,21,00,05,15.80
2014,08,21,00,06,15.30
2014,08,21,00,07,11.80
2014,08,21,00,08,13.90
2014,08,21,00,09,11.50
2014,08,21,00,10,15.80
2014,08,21,00,11,14.50
2014,08,21,00,12,15.40
2014,08,21,00,13,17.80
2014,08,21,00,14,15.50
2014,08,21,00,15,15.80
2014,08,21,00,16,14.50
2014,08,21,00,17,11.00
2014,08,21,00,18,14.50
2014,08,21,00,19,15.50
2014,08,21,00,20,14.50
2014,08,21,00,21,8.10
2014,08,21,00,22,12.00
2014,08,21,00,23,11.90
2014,08,21,00,24,11.70
2014,08,21,00,25,11.30
2014,08,21,00,26,11.80
2014,08,21,00,27,13.80
2014,08,21,00,28,14.00
2014,08,21,00,29,14.10
2014,08,21,00,30,15.20
2014,08,21,00,31,15.40
2014,08,21,00,32,14.20
2014,08,21,00,33,9.60
2014,08,21,00,34,13.00
2014,08,21,00,35,12.50
2014,08,21,00,36,14.80
2014,08,21,00,37,15.40
2014,08,21,00,38,14.70
2014,08,21,00,39,17.00
2014,08,21,00,40,17.30
2014,08,21,00,41,16.10
2014,08,21,00,42,14.70
2014,08,21,00,43,14.20
2014,08,21,00,44,15.00
2014,08,21,00,45,13.80
2014,08,21,00,46,9.70
2014,08,21,00,47,11.80
2014,08,21,00,48,10.30
2014,08,21,00,49,13.60
2014,08,21,00,50,14.40
2014,08,21,00,51,15.20
2014,08,21,00,52,14.50
2014,08,21,00,53,11.00
2014,08,21,00,54,12.60
2014,08,21,00,55,14.90
2014,08,21,00,56,13.00
2014,08,21,00,57,13.60
2014,08,21,00,58,15.40
2014,08,21,00,59,14.80
2014,08,21,01,00,14.30
2014,08,21,01,01,16.20
2014,08,21,01,02,14.40
2014,08,21,01,03,16.20
2014,08,21,01,04,15.10
2014,08,21,01,05,12.60
2014,08,21,01,06,14.90
2014,08,21,01,07,14.70
2014,08,21,01,08,12.80
2014,08,21,01,09,12.10
2014,08,21,01,10,12.60
2014,08,21,01,11,9.20
2014,08,21,01,12,8.80
2014,08,21,01,13,9.30
2014,08,21,01,14,8.50
2014,08,21,01,15,13.20
2014,08,21,01,16,13.00
2014,08,21,01,17,12.90
2014,08,21,01,18,13.80
2014,08,21,01,19,15.20
2014,08,21,01,20,15.20
2014,08,21,01,21,16.50
2014,08,21,01,22,14.70
2014,08,21,01,23,15.50
2014,08,21,01,24,12.20
2014,08,21,01,25,16.20
2014,08,21,01,26,16.90
2014,08,21,01,27,13.30
2014,08,21,01,28,14.80
2014,08,21,01,29,15.10
2014,08,21,01,30,15.80
2014,08,21,01,31,16.40
2014,08,21,01,32,14.10
2014,08,21,01,33,14.80
2014,08,21,01,34,14.80
2014,08,21,01,35,13.00
2014,08,21,01,36,14.50
2014,08,21,01,37,13.80
2014,08,21,01,38,12.60
2014,08,21,01,39,14.50
2014,08,21,01,40,13.50
2014,08,21,01,41,13.00
2014,08,21,01,42,13.00
2014,08,21,01,43,11.00
2014,08,21,01,44,9.20
2014,08,21,01,45,11.80
2014,08,21,01,46,11.70
2014,08,21,01,47,10.80
2014,08,21,01,48,12.30
2014,08,21,01,49,12.00
2014,08,21,01,50,13.40
2014,08,21,01,51,14.00
2014,08,21,01,52,12.90
2014,08,21,01,53,12.90
2014,08,21,01,54,13.30
2014,08,21,01,55,11.30
2014,08,21,01,56,12.70
2014,08,21,01,57,11.30
2014,08,21,01,58,12.40
2014,08,21,01,59,13.90
2014,08,21,02,00,12.20
2014,08,21,02,01,13.40
2014,08,21,02,02,11.10
2014,08,21,02,03,10.10
2014,08,21,02,04,8.50
2014,08,21,02,05,9.80
2014,08,21,02,06,9.50
2014,08,21,02,07,8.80
2014,08,21,02,08,7.80
2014,08,21,02,09,9.90
2014,08,21,02,10,8.10
2014,08,21,02,11,10.90
2014,08,21,02,12,11.30
2014,08,21,02,13,11.10
2014,08,21,02,14,11.90
2014,08,21,02,15,11.00
2014,08,21,02,16,13.40
2014,08,21,02,17,14.20
2014,08,21,02,18,13.70
2014,08,21,02,19,14.00
2014,08,21,02,20,11.90
2014,08,21,02,21,11.10
2014,08,21,02,22,11.90
2014,08,21,02,23,9.30
2014,08,21,02,24,9.70
2014,08,21,02,25,13.20
2014,08,21,02,26,11.30
2014,08,21,02,27,12.00
2014,08,21,02,28,16.50
2014,08,21,02,29,11.00
2014,08,21,02,30,15.00
2014,08,21,02,31,10.20
2014,08,21,02,32,12.40
2014,08,21,02,33,9.00
2014,08,21,02,34,7.40
2014,08,21,02,35,8.20
2014,08,21,02,36,8.80
2014,08,21,02,37,11.10
2014,08,21,02,38,8.60
2014,08,21,02,39,8.30
2014,08,21,02,40,6.80
2014,08,21,02,41,7.70
2014,08,21,02,42,11.70
2014,08,21,02,43,8.70
2014,08,21,02,44,7.50
2014,08,21,02,45,10.80
2014,08,21,02,46,9.90
2014,08,21,02,47,11.10
2014,08,21,02,48,11.30
2014,08,21,02,49,10.90
2014,08,21,02,50,9.50
2014,08,21,02,51,9.60
2014,08,21,02,52,8.50
2014,08,21,02,53,10.10
2014,08,21,02,54,6.40
2014,08,21,02,55,6.30
2014,08,21,02,56,8.70
2014,08,21,02,57,8.00
2014,08,21,02,58,9.80
2014,08,21,02,59,10.20
2014,08,21,03,00,8.60
2014,08,21,03,01,7.20
2014,08,21,03,02,3.60
2014,08,21,03,03,6.20
2014,08,21,03,04,8.40
2014,08,21,03,05,5.30
2014,08,21,03,06,4.70
2014,08,21,03,07,7.30
2014,08,21,03,08,7.10
2014,08,21,03,09,6.70
2014,08,21,03,10,10.30
2014,08,21,03,11,7.20
2014,08,21,03,12,7.50
2014,08,21,03,13,8.00
2014,08,21,03,14,9.70
2014,08,21,03,15,7.20
2014,08,21,03,16,6.60
2014,08,21,03,17,9.20
2014,08,21,03,18,9.90
2014,08,21,03,19,9.60
2014,08,21,03,20,10.40
2014,08,21,03,21,11.40
2014,08,21,03,22,10.30
2014,08,21,03,23,7.00
2014,08,21,03,24,6.90
2014,08,21,03,25,7.90
2014,08,21,03,26,8.70
2014,08,21,03,27,8.10
2014,08,21,03,28,5.90
2014,08,21,03,29,9.90
2014,08,21,03,30,4.40
2014,08,21,03,31,2.00
2014,08,21,03,32,7.50
2014,08,21,03,33,6.90
2014,08,21,03,34,9.80
2014,08,21,03,35,3.70
2014,08,21,03,36,8.30
2014,08,21,03,37,10.10
2014,08,21,03,38,10.30
2014,08,21,03,39,8.00
2014,08,21,03,40,5.80
2014,08,21,03,41,7.00
2014,08,21,03,42,11.30
2014,08,21,03,43,7.60
2014,08,21,03,44,8.50
2014,08,21,03,45,1.70
2014,08,21,03,46,7.70
2014,08,21,03,47,6.90
2014,08,21,03,48,10.10
2014,08,21,03,49,11.70
2014,08,21,03,50,14.10
2014,08,21,03,51,11.30
2014,08,21,03,52,14.60
2014,08,21,03,53,12.00
2014,08,21,03,54,11.60
2014,08,21,03,55,11.90
2014,08,21,03,56,12.60
2014,08,21,03,57,9.80
2014,08,21,03,58,10.40
2014,08,21,03,59,8.40
2014,08,21,04,00,11.30
2014,08,21,04,01,10.50
2014,08,21,04,02,6.70
2014,08,21,04,03,9.50
2014,08,21,04,04,6.80
2014,08,21,04,05,8.20
2014,08,21,04,06,5.70
2014,08,21,04,07,8.00
2014,08,21,04,08,9.60
2014,08,21,04,09,10.50
2014,08,21,04,10,10.50
2014,08,21,04,11,7.60
2014,08,21,04,12,4.90
2014,08,21,04,13,6.10
2014,08,21,04,14,8.90
2014,08,21,04,15,7.60
2014,08,21,04,16,9.30
2014,08,21,04,17,5.80
2014,08,21,04,18,7.40
2014,08,21,04,19,3.00
2014,08,21,04,20,7.00
2014,08,21,04,21,8.70
2014,08,21,04,22,6.80
2014,08,21,04,23,6.30
2014,08,21,04,24,6.80
2014,08,21,04,25,5.10
2014,08,21,04,26,8.20
2014,08,21,04,27,2.20
2014,08,21,04,28,1.10
2014,08,21,04,29,5.80
2014,08,21,04,30,5.70
2014,08,21,04,31,6.70
2014,08,21,04,32,7.10
2014,08,21,04,33,7.10
2014,08,21,04,34,6.80
2014,08,21,04,35,5.90
2014,08,21,04,36,5.50
2014,08,21,04,37,4.20
2014,08,21,04,38,5.00
2014,08,21,04,39,4.90
2014,08,21,04,40,5.70
2014,08,21,04,41,3.30
2014,08,21,04,42,2.90
2014,08,21,04,43,3.30
2014,08,21,04,44,2.70
2014,08,21,04,45,1.80
2014,08,21,04,46,2.50
2014,08,21,04,47,1.30
2014,08,21,04,48,2.00
2014,08,21,04,49,2.00
2014,08,21,04,50,2.80
2014,08,21,04,51,1.60
2014,08,21,04,52,2.10
2014,08,21,04,53,3.00
2014,08,21,04,54,1.10
2014,08,21,04,55,2.90
2014,08,21,04,56,1.50
2014,08,21,04,57,3.50
2014,08,21,04,58,1.10
2014,08,21,04,59,0.40
2014,08,21,05,00,0.00
2014,08,21,05,01,0.00
2014,08,21,05,02,0.00
2014,08,21,05,03,0.00
2014,08,21,05,04,0.00
2014,08,21,05,05,0.00
2014,08,21,05,06,0.00
2014,08,21,05,07,0.00
2014,08,21,05,08,0.00
2014,08,21,05,09,0.00
2014,08,21,05,10,0.00
2014,08,21,05,11,0.00
2014,08,21,05,12,0.00
2014,08,21,05,13,0.00
2014,08,21,05,14,0.00
2014,08,21,05,15,0.00
2014,08,21,05,16,0.00
2014,08,21,05,17,0.00
2014,08,21,05,18,0.00
2014,08,21,05,19,0.00
2014,08,21,05,20,0.00
2014,08,21,05,21,0.00
2014,08,21,05,22,0.00
2014,08,21,05,23,0.00
2014,08,21,05,24,0.00
2014,08,21,05,25,0.00
2014,08,21,05,26,0.00
2014,08,21,05,27,1.40
2014,08,21,05,28,6.40
2014,08,21,05,29,7.70
2014,08,21,05,30,6.30
2014,08,21,05,31,6.70
2014,08,21,05,32,7.10
2014,08,21,05,33,6.40
2014,08,21,05,34,7.60
2014,08,21,05,35,6.70
2014,08,21,05,36,5.70
2014,08,21,05,37,6.80
2014,08,21,05,38,6.20
2014,08,21,05,39,5.60
2014,08,21,05,40,6.70
2014,08,21,05,41,3.90
2014,08,21,05,42,7.60
2014,08,21,05,43,4.30
2014,08,21,05,44,3.10
2014,08,21,05,45,5.30
2014,08,21,05,46,4.30
2014,08,21,05,47,6.90
2014,08,21,05,48,4.80
2014,08,21,05,49,2.60
2014,08,21,05,50,3.50
2014,08,21,05,51,2.50
2014,08,21,05,52,0.40
2014,08,21,05,53,1.10
2014,08,21,05,54,1.60
2014,08,21,05,55,1.30
2014,08,21,05,56,0.00
2014,08,21,05,57,0.00
2014,08,21,05,58,0.00
2014,08,21,05,59,0.00
2014,08,21,06,00,0.20
2014,08,21,06,01,0.00
2014,08,21,06,02,0.00
2014,08,21,06,03,0.70
2014,08,21,06,04,0.10
2014,08,21,06,05,1.70
2014,08,21,06,06,0.80
2014,08,21,06,07,0.20
2014,08,21,06,08,0.00
2014,08,21,06,09,0.00
2014,08,21,06,10,0.00
2014,08,21,06,11,0.10
2014,08,21,06,12,0.20
2014,08,21,06,13,0.00
2014,08,21,06,14,0.00
2014,08,21,06,15,0.10
2014,08,21,06,16,1.20
2014,08,21,06,17,0.60
2014,08,21,06,18,2.60
2014,08,21,06,19,1.40
2014,08,21,06,20,1.90
2014,08,21,06,21,2.70
2014,08,21,06,22,1.20
2014,08,21,06,23,1.20
2014,08,21,06,24,1.60
2014,08,21,06,25,2.90
2014,08,21,06,26,2.10
2014,08,21,06,27,0.10
2014,08,21,06,28,0.30
2014,08,21,06,29,2.80
2014,08,21,06,30,5.00
2014,08,21,06,31,1.00
2014,08,21,06,32,0.90
2014,08,21,06,33,3.30
2014,08,21,06,34,3.60
2014,08,21,06,35,5.00
2014,08,21,06,36,4.50
2014,08,21,06,37,4.20
2014,08,21,06,38,2.30
2014,08,21,06,39,6.40
2014,08,21,06,40,7.00
2014,08,21,06,41,8.00
2014,08,21,06,42,7.60
2014,08,21,06,43,6.00
2014,08,21,06,44,6.40
2014,08,21,06,45,7.30
2014,08,21,06,46,5.60
2014,08,21,06,47,7.00
2014,08,21,06,48,7.20
2014,08,21,06,49,6.20
2014,08,21,06,50,5.80
2014,08,21,06,51,5.10
2014,08,21,06,52,7.70
2014,08,21,06,53,7.20
2014,08,21,06,54,4.70
2014,08,21,06,55,5.50
2014,08,21,06,56,3.40
2014,08,21,06,57,3.00
2014,08,21,06,58,7.70
2014,08,21,06,59,6.10
2014,08,21,07,00,6.70
2014,08,21,07,01,3.90
2014,08,21,07,02,5.10
2014,08,21,07,03,5.30
2014,08,21,07,04,4.80
2014,08,21,07,05,5.20
2014,08,21,07,06,5.10
2014,08,21,07,07,7.60
2014,08,21,07,08,3.90
2014,08,21,07,09,6.50
2014,08,21,07,10,5.80
2014,08,21,07,11,8.00
2014,08,21,07,12,6.90
2014,08,21,07,13,4.40
2014,08,21,07,14,6.60
2014,08,21,07,15,4.60
2014,08,21,07,16,2.30
2014,08,21,07,17,3.70
2014,08,21,07,18,4.40
2014,08,21,07,19,3.20
2014,08,21,07,20,4.40
2014,08,21,07,21,2.50
2014,08,21,07,22,3.30
2014,08,21,07,23,4.90
2014,08,21,07,24,3.90
2014,08,21,07,25,0.90
2014,08,21,07,26,2.60
2014,08,21,07,27,4.90
2014,08,21,07,28,3.70
2014,08,21,07,29,2.80
2014,08,21,07,30,6.50
2014,08,21,07,31,5.20
2014,08,21,07,32,9.10
2014,08,21,07,33,3.50
2014,08,21,07,34,2.70
2014,08,21,07,35,6.40
2014,08,21,07,36,2.70
2014,08,21,07,37,9.70
2014,08,21,07,38,8.20
2014,08,21,07,39,4.00
2014,08,21,07,40,7.60
2014,08,21,07,41,6.10
2014,08,21,07,42,8.90
2014,08,21,07,43,7.10
2014,08,21,07,44,1.60
2014,08,21,07,45,6.60
2014,08,21,07,46,3.10
2014,08,21,07,47,2.10
2014,08,21,07,48,8.10
2014,08,21,07,49,5.00
2014,08,21,07,50,4.40
2014,08,21,07,51,3.30
2014,08,21,07,52,2.40
2014,08,21,07,53,11.60
2014,08,21,07,54,13.60
2014,08,21,07,55,8.70
2014,08,21,07,56,4.10
2014,08,21,07,57,9.70
2014,08,21,07,58,18.10
2014,08,21,07,59,7.30
2014,08,21,08,00,11.30
2014,08,21,08,01,13.10
2014,08,21,08,02,12.50
2014,08,21,08,03,8.40
2014,08,21,08,04,9.20
2014,08,21,08,05,13.20
2014,08,21,08,06,13.00
2014,08,21,08,07,13.60
2014,08,21,08,08,19.60
2014,08,21,08,09,16.10
2014,08,21,08,10,10.90
2014,08,21,08,11,17.30
2014,08,21,08,12,10.80
2014,08,21,08,13,12.50
2014,08,21,08,14,15.80
2014,08,21,08,15,7.00
2014,08,21,08,16,9.40
2014,08,21,08,17,14.80
2014,08,21,08,18,7.70
2014,08,21,08,19,17.20
2014,08,21,08,20,17.80
2014,08,21,08,21,16.60
2014,08,21,08,22,18.30
2014,08,21,08,23,19.10
2014,08,21,08,24,14.20
2014,08,21,08,25,17.60
2014,08,21,08,26,20.80
2014,08,21,08,27,20.00
2014,08,21,08,28,12.60
2014,08,21,08,29,23.30
2014,08,21,08,30,16.70
2014,08,21,08,31,6.50
2014,08,21,08,32,11.60
2014,08,21,08,33,8.50
2014,08,21,08,34,12.10
2014,08,21,08,35,7.50
2014,08,21,08,36,5.70
2014,08,21,08,37,4.50
2014,08,21,08,38,15.00
2014,08,21,08,39,14.80
2014,08,21,08,40,11.80
2014,08,21,08,41,7.60
2014,08,21,08,42,6.70
2014,08,21,08,43,14.50
2014,08,21,08,44,19.10
2014,08,21,08,45,12.90
2014,08,21,08,46,13.90
2014,08,21,08,47,15.70
2014,08,21,08,48,18.60
2014,08,21,08,49,17.50
2014,08,21,08,50,12.10
2014,08,21,08,51,20.40
2014,08,21,08,52,16.90
2014,08,21,08,53,15.80
2014,08,21,08,54,6.70
2014,08,21,08,55,12.10
2014,08,21,08,56,13.60
2014,08,21,08,57,20.90
2014,08,21,08,58,18.80
2014,08,21,08,59,19.10
2014,08,21,09,00,19.60
2014,08,21,09,01,18.80
2014,08,21,09,02,20.20
2014,08,21,09,03,14.10
2014,08,21,09,04,11.40
2014,08,21,09,05,8.50
2014,08,21,09,06,8.40
2014,08,21,09,07,10.50
2014,08,21,09,08,12.30
2014,08,21,09,09,11.70
2014,08,21,09,10,7.80
2014,08,21,09,11,20.00
2014,08,21,09,12,14.20
2014,08,21,09,13,16.00
2014,08,21,09,14,19.20
2014,08,21,09,15,13.50
2014,08,21,09,16,14.20
2014,08,21,09,17,15.20
2014,08,21,09,18,13.10
2014,08,21,09,19,7.10
2014,08,21,09,20,10.90
2014,08,21,09,21,7.10
2014,08,21,09,22,13.60
2014,08,21,09,23,17.20
2014,08,21,09,24,20.80
2014,08,21,09,25,10.70
2014,08,21,09,26,16.40
2014,08,21,09,27,13.30
2014,08,21,09,28,21.30
2014,08,21,09,29,8.00
2014,08,21,09,30,19.20
2014,08,21,09,31,18.10
2014,08,21,09,32,21.80
2014,08,21,09,33,14.90
2014,08,21,09,34,16.60
2014,08,21,09,35,8.90
2014,08,21,09,36,17.30
2014,08,21,09,37,16.30
2014,08,21,09,38,14.70
2014,08,21,09,39,13.80
2014,08,21,09,40,15.70
2014,08,21,09,41,17.20
2014,08,21,09,42,18.70
2014,08,21,09,43,16.90
2014,08,21,09,44,21.80
2014,08,21,09,45,22.30
2014,08,21,09,46,16.60
2014,08,21,09,47,12.40
2014,08,21,09,48,21.80
2014,08,21,09,49,9.70
2014,08,21,09,50,23.00
2014,08,21,09,51,16.40
2014,08,21,09,52,18.10
2014,08,21,09,53,14.90
2014,08,21,09,54,17.30
2014,08,21,09,55,19.80
2014,08,21,09,56,24.50
2014,08,21,09,57,22.40
2014,08,21,09,58,20.10
2014,08,21,09,59,25.80
2014,08,21,10,00,24.10
2014,08,21,10,01,24.80
2014,08,21,10,02,20.70
2014,08,21,10,03,12.40
2014,08,21,10,04,9.70
2014,08,21,10,05,21.00
2014,08,21,10,06,18.80
2014,08,21,10,07,21.50
2014,08,21,10,08,23.60
2014,08,21,10,09,24.40
2014,08,21,10,10,24.10
2014,08,21,10,11,19.50
2014,08,21,10,12,24.30
2014,08,21,10,13,23.70
2014,08,21,10,14,19.50
2014,08,21,10,15,14.60
2014,08,21,10,16,12.50
2014,08,21,10,17,11.10
2014,08,21,10,18,9.60
2014,08,21,10,19,5.30
2014,08,21,10,20,8.40
2014,08,21,10,21,21.10
2014,08,21,10,22,16.80
2014,08,21,10,23,8.10
2014,08,21,10,24,13.10
2014,08,21,10,25,17.80
2014,08,21,10,26,14.80
2014,08,21,10,27,21.20
2014,08,21,10,28,16.80
2014,08,21,10,29,14.70
2014,08,21,10,30,21.70
2014,08,21,10,31,19.80
2014,08,21,10,32,21.90
2014,08,21,10,33,21.30
2014,08,21,10,34,17.30
2014,08,21,10,35,17.40
2014,08,21,10,36,11.80
2014,08,21,10,37,12.10
2014,08,21,10,38,14.60
2014,08,21,10,39,10.10
2014,08,21,10,40,12.90
2014,08,21,10,41,14.30
2014,08,21,10,42,9.40
2014,08,21,10,43,10.80
2014,08,21,10,44,20.20
2014,08,21,10,45,13.50
2014,08,21,10,46,17.30
2014,08,21,10,47,15.60
2014,08,21,10,48,22.20
2014,08,21,10,49,20.20
2014,08,21,10,50,22.20
2014,08,21,10,51,19.50
2014,08,21,10,52,23.20
2014,08,21,10,53,25.40
2014,08,21,10,54,20.60
2014,08,21,10,55,23.60
2014,08,21,10,56,19.60
2014,08,21,10,57,16.70
2014,08,21,10,58,17.60
2014,08,21,10,59,18.50
2014,08,21,11,00,16.30
2014,08,21,11,01,19.10
2014,08,21,11,02,22.90
2014,08,21,11,03,18.70
2014,08,21,11,04,20.10
2014,08,21,11,05,19.40
2014,08,21,11,06,21.70
2014,08,21,11,07,17.80
2014,08,21,11,08,19.80
2014,08,21,11,09,19.00
2014,08,21,11,10,22.80
2014,08,21,11,11,23.90
2014,08,21,11,12,20.90
2014,08,21,11,13,20.70
2014,08,21,11,14,20.20
2014,08,21,11,15,24.10
2014,08,21,11,16,23.90
2014,08,21,11,17,23.90
2014,08,21,11,18,19.20
2014,08,21,11,19,19.60
2014,08,21,11,20,21.70
2014,08,21,11,21,19.90
2014,08,21,11,22,21.80
2014,08,21,11,23,19.30
2014,08,21,11,24,20.40
2014,08,21,11,25,20.00
2014,08,21,11,26,24.90
2014,08,21,11,27,25.20
2014,08,21,11,28,25.70
2014,08,21,11,29,24.90
2014,08,21,11,30,24.10
2014,08,21,11,31,20.80
2014,08,21,11,32,9.50
2014,08,21,11,33,17.50
2014,08,21,11,34,16.60
2014,08,21,11,35,17.10
2014,08,21,11,36,22.50
2014,08,21,11,37,18.90
2014,08,21,11,38,19.00
2014,08,21,11,39,17.80
2014,08,21,11,40,22.30
2014,08,21,11,41,21.70
2014,08,21,11,42,19.00
2014,08,21,11,43,19.80
2014,08,21,11,44,18.00
2014,08,21,11,45,13.50
2014,08,21,11,46,14.70
2014,08,21,11,47,16.30
2014,08,21,11,48,18.90
2014,08,21,11,49,21.10
2014,08,21,11,50,21.50
2014,08,21,11,51,18.80
2014,08,21,11,52,13.20
2014,08,21,11,53,21.10
2014,08,21,11,54,18.70
2014,08,21,11,55,14.40
2014,08,21,11,56,14.10
2014,08,21,11,57,16.80
2014,08,21,11,58,20.70
2014,08,21,11,59,18.70
2014,08,21,12,00,21.60
2014,08,21,12,01,19.60
2014,08,21,12,02,15.60
2014,08,21,12,03,14.20
2014,08,21,12,04,18.00
2014,08,21,12,05,17.20
2014,08,21,12,06,20.20
2014,08,21,12,07,18.50
2014,08,21,12,08,18.30
2014,08,21,12,09,17.70
2014,08,21,12,10,16.90
2014,08,21,12,11,20.20
2014,08,21,12,12,20.10
2014,08,21,12,13,19.90
2014,08,21,12,14,20.30
2014,08,21,12,15,20.70
2014,08,21,12,16,19.90
2014,08,21,12,17,20.40
2014,08,21,12,18,17.90
2014,08,21,12,19,16.80
2014,08,21,12,20,18.20
2014,08,21,12,21,17.10
2014,08,21,12,22,20.50
2014,08,21,12,23,19.10
2014,08,21,12,24,19.10
2014,08,21,12,25,23.80
2014,08,21,12,26,21.50
2014,08,21,12,27,20.50
2014,08,21,12,28,22.70
2014,08,21,12,29,19.90
2014,08,21,12,30,20.90
2014,08,21,12,31,21.60
2014,08,21,12,32,17.40
2014,08,21,12,33,14.90
2014,08,21,12,34,17.60
2014,08,21,12,35,18.90
2014,08,21,12,36,17.80
2014,08,21,12,37,10.90
2014,08,21,12,38,16.80
2014,08,21,12,39,15.10
2014,08,21,12,40,20.40
2014,08,21,12,41,11.20
2014,08,21,12,42,18.70
2014,08,21,12,43,22.60
2014,08,21,12,44,22.70
2014,08,21,12,45,19.20
2014,08,21,12,46,18.50
2014,08,21,12,47,16.70
2014,08,21,12,48,16.70
2014,08,21,12,49,19.20
2014,08,21,12,50,19.70
2014,08,21,12,51,14.70
2014,08,21,12,52,13.40
2014,08,21,12,53,16.60
2014,08,21,12,54,13.00
2014,08,21,12,55,11.40
2014,08,21,12,56,11.30
2014,08,21,12,57,19.20
2014,08,21,12,58,22.00
2014,08,21,12,59,16.80
2014,08,21,13,00,20.70
2014,08,21,13,01,23.00
2014,08,21,13,02,15.40
2014,08,21,13,03,16.10
2014,08,21,13,04,6.90
2014,08,21,13,05,10.30
2014,08,21,13,06,11.90
2014,08,21,13,07,6.50
2014,08,21,13,08,9.10
2014,08,21,13,09,17.00
2014,08,21,13,10,12.80
2014,08,21,13,11,11.80
2014,08,21,13,12,8.60
2014,08,21,13,13,4.40
2014,08,21,13,14,8.30
2014,08,21,13,15,11.60
2014,08,21,13,16,10.30
2014,08,21,13,17,13.10
2014,08,21,13,18,11.90
2014,08,21,13,19,9.70
2014,08,21,13,20,8.60
2014,08,21,13,21,11.00
2014,08,21,13,22,13.00
2014,08,21,13,23,8.90
2014,08,21,13,24,8.40
2014,08,21,13,25,12.20
2014,08,21,13,26,5.90
2014,08,21,13,27,10.20
2014,08,21,13,28,13.60
2014,08,21,13,29,5.40
2014,08,21,13,30,7.70
2014,08,21,13,31,7.00
2014,08,21,13,32,6.90
2014,08,21,13,33,9.10
2014,08,21,13,34,13.30
2014,08,21,13,35,9.00
2014,08,21,13,36,14.60
2014,08,21,13,37,11.70
2014,08,21,13,38,15.90
2014,08,21,13,39,18.90
2014,08,21,13,40,15.40
2014,08,21,13,41,17.00
2014,08,21,13,42,16.70
2014,08,21,13,43,14.10
2014,08,21,13,44,10.30
2014,08,21,13,45,18.10
2014,08,21,13,46,15.40
2014,08,21,13,47,17.70
2014,08,21,13,48,15.00
2014,08,21,13,49,5.90
2014,08,21,13,50,11.20
2014,08,21,13,51,13.80
2014,08,21,13,52,10.10
2014,08,21,13,53,9.50
2014,08,21,13,54,10.10
2014,08,21,13,55,11.30
2014,08,21,13,56,13.40
2014,08,21,13,57,13.70
2014,08,21,13,58,10.90
2014,08,21,13,59,13.60
2014,08,21,14,00,10.20
2014,08,21,14,01,10.30
2014,08,21,14,02,7.50
2014,08,21,14,03,9.30
2014,08,21,14,04,14.90
2014,08,21,14,05,15.70
2014,08,21,14,06,12.30
2014,08,21,14,07,5.00
2014,08,21,14,08,12.40
2014,08,21,14,09,7.20
2014,08,21,14,10,9.90
2014,08,21,14,11,10.20
2014,08,21,14,12,5.90
2014,08,21,14,13,9.60
2014,08,21,14,14,10.50
2014,08,21,14,15,10.60
2014,08,21,14,16,12.50
2014,08,21,14,17,15.50
2014,08,21,14,18,11.40
2014,08,21,14,19,15.70
2014,08,21,14,20,16.50
2014,08,21,14,21,17.50
2014,08,21,14,22,17.40
2014,08,21,14,23,20.80
2014,08,21,14,24,18.70
2014,08,21,14,25,18.90
2014,08,21,14,26,17.30
2014,08,21,14,27,16.40
2014,08,21,14,28,16.70
2014,08,21,14,29,15.70
2014,08,21,14,30,13.70
2014,08,21,14,31,12.50
2014,08,21,14,32,15.40
2014,08,21,14,33,14.50
2014,08,21,14,34,15.10
2014,08,21,14,35,14.60
2014,08,21,14,36,13.00
2014,08,21,14,37,11.00
2014,08,21,14,38,11.30
2014,08,21,14,39,9.70
2014,08,21,14,40,13.90
2014,08,21,14,41,11.10
2014,08,21,14,42,8.20
2014,08,21,14,43,10.90
2014,08,21,14,44,13.00
2014,08,21,14,45,9.70
2014,08,21,14,46,11.30
2014,08,21,14,47,12.90
2014,08,21,14,48,14.20
2014,08,21,14,49,18.10
2014,08,21,14,50,14.90
2014,08,21,14,51,13.60
2014,08,21,14,52,11.00
2014,08,21,14,53,16.00
2014,08,21,14,54,15.10
2014,08,21,14,55,13.60
2014,08,21,14,56,11.20
2014,08,21,14,57,13.80
2014,08,21,14,58,10.40
2014,08,21,14,59,12.90
2014,08,21,15,00,14.40
2014,08,21,15,01,11.30
2014,08,21,15,02,13.10
2014,08,21,15,03,13.60
2014,08,21,15,04,11.10
2014,08,21,15,05,12.70
2014,08,21,15,06,16.80
2014,08,21,15,07,12.40
2014,08,21,15,08,11.70
2014,08,21,15,09,7.50
2014,08,21,15,10,12.50
2014,08,21,15,11,12.00
2014,08,21,15,12,10.30
2014,08,21,15,13,12.00
2014,08,21,15,14,15.40
2014,08,21,15,15,15.80
2014,08,21,15,16,13.80
2014,08,21,15,17,13.70
2014,08,21,15,18,10.80
2014,08,21,15,19,11.30
2014,08,21,15,20,14.00
2014,08,21,15,21,11.90
2014,08,21,15,22,14.70
2014,08,21,15,23,15.30
2014,08,21,15,24,9.60
2014,08,21,15,25,12.00
2014,08,21,15,26,13.00
2014,08,21,15,27,14.20
2014,08,21,15,28,13.90
2014,08,21,15,29,13.40
2014,08,21,15,30,9.80
2014,08,21,15,31,8.80
2014,08,21,15,32,9.70
2014,08,21,15,33,10.50
2014,08,21,15,34,5.70
2014,08,21,15,35,7.30
2014,08,21,15,36,8.90
2014,08,21,15,37,10.00
2014,08,21,15,38,7.30
2014,08,21,15,39,11.60
2014,08,21,15,40,11.30
2014,08,21,15,41,10.90
2014,08,21,15,42,10.10
2014,08,21,15,43,13.10
2014,08,21,15,44,10.80
2014,08,21,15,45,11.50
2014,08,21,15,46,7.50
2014,08,21,15,47,6.90
2014,08,21,15,48,11.20
2014,08,21,15,49,13.80
2014,08,21,15,50,10.00
2014,08,21,15,51,8.20
2014,08,21,15,52,8.90
2014,08,21,15,53,5.60
2014,08,21,15,54,9.40
2014,08,21,15,55,8.30
2014,08,21,15,56,9.30
2014,08,21,15,57,10.90
2014,08,21,15,58,9.00
2014,08,21,15,59,11.60
2014,08,21,16,00,9.70
2014,08,21,16,01,7.80
2014,08,21,16,02,5.80
2014,08,21,16,03,5.00
2014,08,21,16,04,8.10
2014,08,21,16,05,6.60
2014,08,21,16,06,5.20
2014,08,21,16,07,0.60
2014,08,21,16,08,3.40
2014,08,21,16,09,10.50
2014,08,21,16,10,15.40
2014,08,21,16,11,8.10
2014,08,21,16,12,2.90
2014,08,21,16,13,3.80
2014,08,21,16,14,3.90
2014,08,21,16,15,1.60
2014,08,21,16,16,0.70
2014,08,21,16,17,4.30
2014,08,21,16,18,7.90
2014,08,21,16,19,5.70
2014,08,21,16,20,8.00
2014,08,21,16,21,5.10
2014,08,21,16,22,6.00
2014,08,21,16,23,5.20
2014,08,21,16,24,6.30
2014,08,21,16,25,7.30
2014,08,21,16,26,6.90
2014,08,21,16,27,2.50
2014,08,21,16,28,6.70
2014,08,21,16,29,3.10
2014,08,21,16,30,8.10
2014,08,21,16,31,4.10
2014,08,21,16,32,6.30
2014,08,21,16,33,10.80
2014,08,21,16,34,8.00
2014,08,21,16,35,7.10
2014,08,21,16,36,8.60
2014,08,21,16,37,12.00
2014,08,21,16,38,13.20
2014,08,21,16,39,16.20
2014,08,21,16,40,8.30
2014,08,21,16,41,8.60
2014,08,21,16,42,8.00
2014,08,21,16,43,4.20
2014,08,21,16,44,5.10
2014,08,21,16,45,5.20
2014,08,21,16,46,9.90
2014,08,21,16,47,6.60
2014,08,21,16,48,9.30
2014,08,21,16,49,9.90
2014,08,21,16,50,10.10
2014,08,21,16,51,10.20
2014,08,21,16,52,13.70
2014,08,21,16,53,5.80
2014,08,21,16,54,9.00
2014,08,21,16,55,6.90
2014,08,21,16,56,8.10
2014,08,21,16,57,8.10
2014,08,21,16,58,11.50
2014,08,21,16,59,6.30
2014,08,21,17,00,4.30
2014,08,21,17,01,10.10
2014,08,21,17,02,8.00
2014,08,21,17,03,12.20
2014,08,21,17,04,7.70
2014,08,21,17,05,9.70
2014,08,21,17,06,11.30
2014,08,21,17,07,13.40
2014,08,21,17,08,6.70
2014,08,21,17,09,7.30
2014,08,21,17,10,13.40
2014,08,21,17,11,6.50
2014,08,21,17,12,8.70
2014,08,21,17,13,8.80
2014,08,21,17,14,4.70
2014,08,21,17,15,12.60
2014,08,21,17,16,14.10
2014,08,21,17,17,7.30
2014,08,21,17,18,10.40
2014,08,21,17,19,8.90
2014,08,21,17,20,13.70
2014,08,21,17,21,9.30
2014,08,21,17,22,10.20
2014,08,21,17,23,10.80
2014,08,21,17,24,12.70
2014,08,21,17,25,12.30
2014,08,21,17,26,9.60
2014,08,21,17,27,9.80
2014,08,21,17,28,15.30
2014,08,21,17,29,9.80
2014,08,21,17,30,10.00
2014,08,21,17,31,10.50
2014,08,21,17,32,16.50
2014,08,21,17,33,14.90
2014,08,21,17,34,15.20
2014,08,21,17,35,10.80
2014,08,21,17,36,16.00
2014,08,21,17,37,10.20
2014,08,21,17,38,17.60
2014,08,21,17,39,7.70